Location: Poughquag
(41.6090°N, 73.6820°W)
Time: 03:34:39
(UTC-04:00)

Transit 4A - Pass Details

Date: 30 May 2020
Orbit: 866 x 978 km, 66.8° (Epoch: 06 July)

Event Time Altitude Azimuth Distance (km) Brightness Sun altitude
Rises 01:21:29 0° 172° (S) 3,432 - -26.2°
Reaches altitude 10° 01:24:21 10° 159° (SSE) 2,501 - -26.1°
Exits shadow 01:28:33 25° 113° (ESE) 1,704 9.1 -26.0°
Maximum altitude 01:28:54 25° 107° (ESE) 1,699 9.2 -26.0°
Drops below altitude 10° 01:33:31 10° 54° (NE) 2,540 10.7 -25.8°
Sets 01:36:27 0° 42° (NE) 3,498 11.8 -25.7°
